User: anonymous
Location: Fisheating Creek Campgrounds
(26.9333°N, 81.3167°W)
Time: 11:31:39
(UTC-04:00)
Language:

Cosmos 2221 Rocket - Orbit

View from above orbital plane
View from above orbital plane
View from above satellite
View from above satellite

Ground track
Ground track

The orbit data is extracted from the following two-line orbital elements,

1 22237U 92080B   14111.53265788  .00000657  00000-0  88046-4 0  3056
2 22237 082.5098 109.6669 0019949 019.0560 100.0063 14.77822475153163
Epoch (UTC): 21 April 2014 12:47:01
Eccentricity: 0.0019949
inclination: 82.5098°
perigee height: 622 km
apogee height: 650 km
right ascension of ascending node: 109.6669°
argument of perigee: 19.0560°
revolutions per day: 14.77822475
mean anomaly at epoch: 100.0063°
orbit number at epoch: 15316

The dashed part of the orbit path shows where the satellite is in the earth's shadow,  

DLR